Flag for United Kingdom Weather past 2 weeks in Greenwich Borough, England, United Kingdom

Now
57 °F

Passing clouds.


Feels Like: 55 °F
Forecast: 57 / 66 °F
Wind: 8 mph from Southwest

Location: Biggin Hill Airport

Current Time: Aug 21, 2014 at 11:22:34 PM

Latest Report: Aug 21, 2014 at 8:50 PM


Visibility: N/A

Pressure: 29.92 "Hg

Humidity: 63%

Dew point: 45 °F

Location of Greenwich BoroughLocation

Historic Weather in Greenwich Borough — Graph

°F

Greenwich Borough temperature yesterday

Maximum temperature yesterday: 61 °F (at 2:20 PM)
Minimum temperature yesterday: 48 °F (at 7:20 AM)
Average temperature yesterday: 58 °F

Past Weeks' High & Low Weather Summary

 TemperatureHumidityPressure
High77 °F (Aug 7, 3:50 PM)94% (Aug 10, 10:20 AM)30.18 "Hg (Aug 10, 10:20 AM)
Low48 °F (Aug 20, 7:20 AM)36% (Aug 20, 5:20 PM)29.33 "Hg (Aug 10, 12:50 PM)
Average61 °F64%29.85 "Hg
* Reported Aug 6 8:20 PM — Aug 21 8:50 PM, Greenwich Borough, Weather by CustomWeather, © 2014

Note: Actual official high and low records may vary slightly from our data, if they occured in-between our weather recording intervals... More about our weather records

Advertising

Greenwich Borough weather history for previous 24 hours

 ConditionsComfort  
Time TempWeatherWind HumidityBarometerVisibility
8:50 PM
Aug 21
57 °FPassing clouds.8 mph63%29.92 "HgN/A
8:20 PM57 °FPassing clouds.10 mph63%29.92 "HgN/A
7:50 PM57 °FPassing clouds.10 mph63%29.92 "HgN/A
7:20 PM57 °FPassing clouds.9 mph63%29.92 "HgN/A
6:50 PM57 °FPassing clouds.9 mph63%29.92 "HgN/A
6:20 PM59 °FPassing clouds.8 mph59%29.92 "HgN/A
5:50 PM59 °FPassing clouds.8 mph59%29.95 "HgN/A
5:20 PM59 °FScattered clouds.9 mph59%29.95 "HgN/A
4:50 PM59 °FScattered clouds.9 mph55%29.95 "HgN/A
4:20 PM59 °FScattered clouds.12 mph55%29.95 "HgN/A
3:50 PM59 °FScattered clouds.12 mph55%29.95 "HgN/A
3:20 PM59 °FScattered clouds.12 mph59%29.98 "HgN/A
2:50 PM57 °FScattered clouds.10 mph63%29.98 "HgN/A
2:20 PM57 °FScattered showers. Scattered clouds.12 mph63%29.98 "HgN/A
1:50 PM59 °FScattered clouds.12 mph51%29.98 "HgN/A
1:20 PM61 °FScattered clouds.12 mph48%29.98 "HgN/A
12:50 PM61 °FScattered clouds.12 mph42%29.98 "HgN/A
12:20 PM59 °FPassing clouds.10 mph45%30.01 "HgN/A
11:50 AM57 °FPassing clouds.12 mph51%30.01 "HgN/A
11:20 AM57 °FPassing clouds.9 mph51%30.01 "HgN/A
10:50 AM57 °FPassing clouds.12 mph51%30.01 "HgN/A
10:20 AM57 °FPassing clouds.12 mph55%30.01 "HgN/A
9:50 AM57 °FPassing clouds.9 mph59%30.01 "HgN/A
9:20 AM55 °FPassing clouds.8 mph63%30.04 "HgN/A
8:50 AM54 °FPassing clouds.6 mph67%30.04 "HgN/A
8:20 AM52 °FSunny.3 mph72%30.01 "Hg10 mi
7:50 AM50 °FSunny.2 mph76%30.01 "Hg10 mi
7:20 AM50 °FSunny.3 mph76%30.01 "Hg10 mi
6:50 AM48 °FClear.5 mph82%30.01 "Hg10 mi
Weather by CustomWeather, © 2014

See weather overviewHow to use our weather pages